| time (UTC) | temp F | wind direction | speed knots | gust knots | rain 1hr in | rain 24hr in | rain mn in | humidity % | barometer mb |
| 20260505224849 | 84 | 129 | 3.5 | 6.1 | 0.00 | 0.00 | 0.00 | 81 | 1004.8 |
| 20260505224347 | 84 | 188 | 1.7 | 8.7 | 0.00 | 0.00 | 0.00 | 80 | 1005.0 |
| 20260505223844 | 85 | 202 | 2.6 | 7.0 | 0.00 | 0.00 | 0.00 | 80 | 1004.9 |
| 20260505223341 | 84 | 195 | 3.5 | 7.0 | 0.00 | 0.00 | 0.00 | 80 | 1004.8 |
| 20260505222836 | 84 | 183 | 4.3 | 8.7 | 0.00 | 0.00 | 0.00 | 80 | 1004.8 |
| 20260505222333 | 85 | 213 | 4.3 | 6.1 | 0.00 | 0.00 | 0.00 | 80 | 1005.0 |
| 20260505221830 | 84 | 219 | 6.1 | 8.7 | 0.00 | 0.00 | 0.00 | 80 | 1004.9 |
| 20260505221327 | 85 | 233 | 4.3 | 6.1 | 0.00 | 0.00 | 0.00 | 79 | 1005.0 |
| 20260505220824 | 85 | 191 | 2.6 | 5.2 | 0.00 | 0.00 | 0.00 | 80 | 1004.8 |
| 20260505220321 | 86 | 212 | 5.2 | 6.1 | 0.00 | 0.00 | 0.00 | 80 | 1005.1 |
| 20260505215819 | 85 | 229 | 2.6 | 7.0 | 0.00 | 0.00 | 0.00 | 80 | 1004.9 |
| 20260505215317 | 84 | 216 | 6.1 | 7.8 | 0.00 | 0.00 | 0.00 | 81 | 1005.0 |
| 20260505214814 | 84 | 232 | 1.7 | 7.8 | 0.00 | 0.00 | 0.00 | 81 | 1005.1 |
| 20260505214311 | 85 | 222 | 7.8 | 7.8 | 0.00 | 0.00 | 0.00 | 80 | 1005.1 |
| 20260505213808 | 86 | 210 | 1.7 | 3.5 | 0.00 | 0.00 | 0.00 | 79 | 1004.8 |
| 20260505213306 | 84 | 225 | 2.6 | 5.2 | 0.00 | 0.00 | 0.00 | 81 | 1005.3 |
| 20260505212801 | 84 | 242 | 5.2 | 8.7 | 0.00 | 0.00 | 0.00 | 81 | 1005.3 |
| 20260505212259 | 85 | 198 | 2.6 | 6.1 | 0.00 | 0.00 | 0.00 | 80 | 1005.3 |
| 20260505211755 | 84 | 205 | 4.3 | 8.7 | 0.00 | 0.00 | 0.00 | 82 | 1005.0 |
| 20260505211253 | 84 | 217 | 7.0 | 9.6 | 0.00 | 0.00 | 0.00 | 82 | 1005.3 |
| 20260505210749 | 84 | 144 | 4.3 | 7.8 | 0.00 | 0.00 | 0.00 | 81 | 1005.5 |
| 20260505210246 | 84 | 204 | 5.2 | 8.7 | 0.00 | 0.00 | 0.00 | 81 | 1005.9 |
| 20260505205743 | 84 | 225 | 5.2 | 9.6 | 0.00 | 0.00 | 0.00 | 81 | 1005.8 |
| 20260505205242 | 85 | 148 | 1.7 | 4.3 | 0.00 | 0.00 | 0.00 | 81 | 1005.9 |
| 20260505204738 | 85 | 180 | 0.0 | 9.6 | 0.00 | 0.00 | 0.00 | 80 | 1006.0 |
| 20260505204236 | 84 | 227 | 2.6 | 9.6 | 0.00 | 0.00 | 0.00 | 80 | 1005.9 |
| 20260505203733 | 84 | 200 | 4.3 | 7.8 | 0.00 | 0.00 | 0.00 | 80 | 1006.1 |
| 20260505203230 | 83 | 222 | 7.8 | 10.4 | 0.00 | 0.00 | 0.00 | 81 | 1006.2 |
| 20260505202725 | 84 | 210 | 7.0 | 9.6 | 0.00 | 0.00 | 0.00 | 81 | 1006.1 |
| 20260505202222 | 85 | 218 | 4.3 | 6.1 | 0.00 | 0.00 | 0.00 | 82 | 1006.2 |
| 20260505201718 | 84 | 210 | 8.7 | 9.6 | 0.00 | 0.00 | 0.00 | 81 | 1006.4 |
| 20260505201216 | 83 | 157 | 4.3 | 7.8 | 0.00 | 0.00 | 0.00 | 82 | 1006.2 |
| 20260505200714 | 83 | 233 | 1.7 | 5.2 | 0.00 | 0.00 | 0.00 | 81 | 1006.4 |
| 20260505200211 | 83 | 225 | 4.3 | 13.9 | 0.00 | 0.00 | 0.00 | 81 | 1006.5 |
| 20260505195706 | 83 | 231 | 4.3 | 8.7 | 0.00 | 0.00 | 0.00 | 82 | 1006.6 |
| 20260505195204 | 83 | 226 | 9.6 | 13.0 | 0.00 | 0.00 | 0.00 | 82 | 1006.7 |
| 20260505194701 | 83 | 233 | 5.2 | 9.6 | 0.00 | 0.00 | 0.00 | 82 | 1006.6 |
| 20260505194157 | 83 | 207 | 6.1 | 11.3 | 0.00 | 0.00 | 0.00 | 82 | 1006.7 |
| 20260505193654 | 83 | 229 | 2.6 | 8.7 | 0.00 | 0.00 | 0.00 | 83 | 1006.9 |
| 20260505193151 | 83 | 226 | 7.8 | 9.6 | 0.00 | 0.00 | 0.00 | 84 | 1006.9 |
| 20260505192649 | 82 | 208 | 3.5 | 8.7 | 0.00 | 0.00 | 0.00 | 83 | 1006.9 |
| 20260505192147 | 82 | 223 | 4.3 | 7.8 | 0.00 | 0.00 | 0.00 | 84 | 1006.8 |
| 20260505191645 | 84 | 213 | 3.5 | 7.8 | 0.00 | 0.00 | 0.00 | 82 | 1007.0 |
| 20260505191143 | 82 | 228 | 6.1 | 10.4 | 0.00 | 0.00 | 0.00 | 84 | 1006.9 |
| 20260505190639 | 82 | 226 | 12.2 | 20.0 | 0.00 | 0.00 | 0.00 | 82 | 1007.1 |
| 20260505190138 | 82 | 223 | 4.3 | 20.9 | 0.00 | 0.00 | 0.00 | 83 | 1006.9 |
| 20260505185636 | 82 | 244 | 6.1 | 12.2 | 0.00 | 0.00 | 0.00 | 82 | 1007.1 |
| 20260505185132 | 82 | 210 | 13.0 | 15.6 | 0.00 | 0.00 | 0.00 | 82 | 1007.2 |
| 20260505184628 | 81 | 225 | 6.1 | 10.4 | 0.00 | 0.00 | 0.00 | 85 | 1007.2 |
| 20260505184126 | 80 | 201 | 6.1 | 13.0 | 0.00 | 0.00 | 0.00 | 85 | 1007.4 |
| 20260505183622 | 80 | 211 | 4.3 | 13.9 | 0.00 | 0.00 | 0.00 | 85 | 1007.3 |
| 20260505183120 | 81 | 212 | 6.1 | 13.0 | 0.00 | 0.00 | 0.00 | 85 | 1007.5 |
| 20260505182616 | 80 | 220 | 10.4 | 15.6 | 0.00 | 0.00 | 0.00 | 85 | 1007.3 |
| 20260505182113 | 80 | 190 | 2.6 | 9.6 | 0.00 | 0.00 | 0.00 | 85 | 1007.6 |
| 20260505181609 | 81 | 216 | 7.8 | 12.2 | 0.00 | 0.00 | 0.00 | 84 | 1007.6 |
| 20260505181107 | 80 | 207 | 11.3 | 14.8 | 0.00 | 0.00 | 0.00 | 85 | 1007.6 |
| 20260505180603 | 81 | 228 | 9.6 | 12.2 | 0.00 | 0.00 | 0.00 | 85 | 1007.5 |
| 20260505180101 | 81 | 207 | 3.5 | 10.4 | 0.00 | 0.00 | 0.00 | 85 | 1007.6 |
| 20260505175556 | 80 | 226 | 4.3 | 8.7 | 0.00 | 0.00 | 0.00 | 88 | 1007.7 |
| 20260505175053 | 80 | 228 | 6.1 | 13.0 | 0.00 | 0.00 | 0.00 | 86 | 1007.7 |
| 20260505174550 | 80 | 215 | 8.7 | 11.3 | 0.00 | 0.00 | 0.00 | 86 | 1007.9 |
| 20260505174045 | 80 | 223 | 5.2 | 13.9 | 0.00 | 0.00 | 0.00 | 87 | 1007.5 |
| 20260505173537 | 79 | 204 | 3.5 | 15.6 | 0.00 | 0.00 | 0.00 | 88 | 1008.0 |
| 20260505173033 | 79 | 213 | 6.1 | 9.6 | 0.00 | 0.00 | 0.00 | 88 | 1007.9 |
| 20260505172531 | 78 | 223 | 3.5 | 14.8 | 0.00 | 0.00 | 0.00 | 89 | 1007.9 |
| 20260505172028 | 78 | 233 | 5.2 | 9.6 | 0.00 | 0.00 | 0.00 | 89 | 1007.9 |
| 20260505171523 | 78 | 217 | 6.1 | 17.4 | 0.00 | 0.00 | 0.00 | 88 | 1008.0 |
| 20260505171020 | 79 | 216 | 4.3 | 9.6 | 0.00 | 0.00 | 0.00 | 88 | 1007.9 |
| 20260505170517 | 79 | 227 | 5.2 | 10.4 | 0.00 | 0.00 | 0.00 | 88 | 1008.0 |
| 20260505170013 | 79 | 246 | 9.6 | 14.8 | 0.00 | 0.00 | 0.00 | 88 | 1008.0 |
| 20260505165508 | 78 | 250 | 11.3 | 11.3 | 0.00 | 0.00 | 0.00 | 89 | 1007.9 |
| 20260505165004 | 78 | 213 | 7.8 | 18.2 | 0.00 | 0.00 | 0.00 | 88 | 1008.1 |
| 20260505164500 | 78 | 231 | 7.8 | 10.4 | 0.00 | 0.00 | 0.00 | 89 | 1008.0 |
| 20260505163959 | 78 | 222 | 9.6 | 13.9 | 0.00 | 0.00 | 0.00 | 89 | 1008.1 |
| 20260505163457 | 78 | 227 | 6.1 | 12.2 | 0.00 | 0.00 | 0.00 | 89 | 1008.1 |
| 20260505162956 | 78 | 213 | 2.6 | 13.0 | 0.00 | 0.00 | 0.00 | 90 | 1007.9 |
| 20260505162451 | 78 | 216 | 2.6 | 5.2 | 0.00 | 0.00 | 0.00 | 90 | 1008.2 |
| 20260505161948 | 77 | 206 | 3.5 | 7.8 | 0.00 | 0.00 | 0.00 | 91 | 1008.0 |
| 20260505161445 | 77 | 216 | 3.5 | 8.7 | 0.00 | 0.00 | 0.00 | 91 | 1007.9 |
| 20260505160942 | 77 | 234 | 4.3 | 7.8 | 0.00 | 0.00 | 0.00 | 92 | 1008.1 |
| 20260505160440 | 76 | 180 | 2.6 | 11.3 | 0.00 | 0.00 | 0.00 | 92 | 1008.0 |
| 20260505152910 | 75 | 230 | 4.3 | 13.0 | 0.00 | 0.00 | 0.00 | 94 | 1008.0 |
| 20260505152407 | 75 | 235 | 4.3 | 10.4 | 0.00 | 0.00 | 0.00 | 94 | 1007.9 |
| 20260505151902 | 75 | 211 | 5.2 | 14.8 | 0.00 | 0.00 | 0.00 | 94 | 1007.8 |
| 20260505151358 | 75 | 154 | 1.7 | 7.8 | 0.00 | 0.00 | 0.00 | 94 | 1007.9 |
| 20260505150855 | 75 | 215 | 6.1 | 15.6 | 0.00 | 0.00 | 0.00 | 94 | 1008.0 |
| 20260505150347 | 75 | 215 | 10.4 | 13.0 | 0.00 | 0.00 | 0.00 | 94 | 1007.9 |
| 20260505140317 | 73 | 150 | 3.5 | 9.6 | 0.00 | 0.00 | 0.00 | 96 | 1007.8 |
| 20260505130240 | 72 | 198 | 3.5 | 7.0 | 0.00 | 0.00 | 0.00 | 96 | 1007.3 |
| 20260505124731 | 72 | 199 | 6.1 | 11.3 | 0.00 | 0.00 | 0.00 | 97 | 1007.2 |
| 20260505124228 | 72 | 157 | 6.1 | 7.8 | 0.00 | 0.00 | 0.00 | 96 | 1007.2 |
| 20260505123723 | 71 | 195 | 2.6 | 12.2 | 0.00 | 0.00 | 0.00 | 96 | 1007.2 |
| 20260505123220 | 71 | 215 | 4.3 | 7.0 | 0.00 | 0.00 | 0.00 | 96 | 1007.3 |
| 20260505122716 | 71 | 203 | 0.0 | 6.1 | 0.00 | 0.00 | 0.00 | 96 | 1007.3 |
| 20260505122214 | 71 | 208 | 7.0 | 8.7 | 0.00 | 0.00 | 0.00 | 96 | 1007.1 |
| 20260505121705 | 71 | 195 | 1.7 | 9.6 | 0.00 | 0.00 | 0.00 | 96 | 1007.0 |
| 20260505121201 | 71 | 201 | 2.6 | 8.7 | 0.00 | 0.00 | 0.00 | 96 | 1007.2 |
| 20260505120658 | 71 | 213 | 4.3 | 6.1 | 0.00 | 0.00 | 0.00 | 96 | 1007.0 |
| 20260505120153 | 71 | 214 | 2.6 | 8.7 | 0.00 | 0.00 | 0.00 | 96 | 1006.8 |
| 20260505115647 | 71 | 214 | 0.0 | 6.1 | 0.00 | 0.00 | 0.00 | 96 | 1006.8 |
| 20260505115146 | 71 | 215 | 6.1 | 6.1 | 0.00 | 0.00 | 0.00 | 96 | 1006.9 |
| 20260505114643 | 71 | 210 | 1.7 | 7.8 | 0.00 | 0.00 | 0.00 | 96 | 1007.0 |
| 20260505114139 | 71 | 201 | 4.3 | 12.2 | 0.00 | 0.00 | 0.00 | 95 | 1007.0 |
| 20260505113635 | 71 | 151 | 5.2 | 9.6 | 0.00 | 0.00 | 0.00 | 95 | 1007.1 |
| 20260505113132 | 71 | 223 | 4.3 | 7.0 | 0.00 | 0.00 | 0.00 | 96 | 1007.2 |
| 20260505112628 | 71 | 205 | 3.5 | 9.6 | 0.00 | 0.00 | 0.00 | 95 | 1006.9 |
| 20260505112126 | 71 | 177 | 1.7 | 9.6 | 0.00 | 0.00 | 0.00 | 95 | 1006.8 |
| 20260505111626 | 71 | 226 | 3.5 | 10.4 | 0.00 | 0.00 | 0.00 | 95 | 1006.7 |
| 20260505111122 | 71 | 226 | 10.4 | 10.4 | 0.00 | 0.00 | 0.00 | 95 | 1007.0 |
| 20260505110618 | 71 | 208 | 4.3 | 11.3 | 0.00 | 0.00 | 0.00 | 95 | 1006.9 |
| 20260505110115 | 71 | 208 | 4.3 | 9.6 | 0.00 | 0.00 | 0.00 | 95 | 1006.8 |
| 20260505102051 | 71 | 222 | 5.2 | 11.3 | 0.00 | 0.00 | 0.00 | 95 | 1006.8 |
| 20260505101550 | 71 | 214 | 5.2 | 9.6 | 0.00 | 0.00 | 0.00 | 95 | 1007.1 |
| 20260505101046 | 71 | 225 | 3.5 | 10.4 | 0.00 | 0.00 | 0.00 | 95 | 1007.1 |
| 20260505100542 | 71 | 216 | 6.1 | 6.1 | 0.00 | 0.00 | 0.00 | 95 | 1006.9 |
| 20260505100039 | 70 | 241 | 3.5 | 7.0 | 0.00 | 0.00 | 0.00 | 95 | 1006.7 |
| 20260505095535 | 71 | 204 | 6.1 | 9.6 | 0.00 | 0.00 | 0.00 | 95 | 1007.1 |
| 20260505095032 | 71 | 200 | 5.2 | 9.6 | 0.00 | 0.00 | 0.00 | 95 | 1007.2 |
| 20260505094528 | 71 | 257 | 0.9 | 10.4 | 0.00 | 0.00 | 0.00 | 95 | 1007.2 |
| 20260505094025 | 71 | 209 | 2.6 | 10.4 | 0.00 | 0.00 | 0.00 | 95 | 1006.9 |
| 20260505093521 | 71 | 241 | 3.5 | 11.3 | 0.00 | 0.00 | 0.00 | 95 | 1006.8 |
| 20260505093019 | 71 | 227 | 4.3 | 12.2 | 0.00 | 0.00 | 0.00 | 95 | 1007.1 |
| 20260505092516 | 71 | 221 | 0.0 | 13.9 | 0.00 | 0.00 | 0.00 | 95 | 1007.1 |
| 20260505092014 | 71 | 220 | 12.2 | 13.9 | 0.00 | 0.00 | 0.00 | 94 | 1007.0 |
| 20260505091511 | 71 | 154 | 3.5 | 7.0 | 0.00 | 0.00 | 0.00 | 95 | 1007.3 |
| 20260505091009 | 71 | 168 | 6.1 | 12.2 | 0.00 | 0.00 | 0.00 | 95 | 1007.2 |
| 20260505090507 | 71 | 176 | 3.5 | 12.2 | 0.00 | 0.00 | 0.00 | 94 | 1007.3 |
| 20260505090004 | 71 | 189 | 4.3 | 7.0 | 0.00 | 0.00 | 0.00 | 95 | 1007.3 |
| 20260505085502 | 71 | 223 | 3.5 | 7.8 | 0.00 | 0.00 | 0.00 | 95 | 1007.3 |
| 20260505085000 | 71 | 225 | 6.1 | 11.3 | 0.00 | 0.00 | 0.00 | 95 | 1007.3 |
| 20260505084458 | 71 | 221 | 6.1 | 7.8 | 0.00 | 0.00 | 0.00 | 95 | 1007.4 |
| 20260505083955 | 71 | 187 | 0.9 | 11.3 | 0.00 | 0.00 | 0.00 | 95 | 1007.5 |
| 20260505083452 | 71 | 154 | 0.9 | 9.6 | 0.00 | 0.00 | 0.00 | 95 | 1007.3 |
| 20260505082949 | 71 | 217 | 11.3 | 19.1 | 0.00 | 0.00 | 0.00 | 95 | 1007.5 |
| 20260505082444 | 71 | 152 | 4.3 | 10.4 | 0.00 | 0.00 | 0.00 | 95 | 1007.7 |
| 20260505081942 | 71 | 214 | 4.3 | 13.0 | 0.00 | 0.00 | 0.00 | 94 | 1008.0 |
| 20260505081439 | 71 | 224 | 7.8 | 13.0 | 0.00 | 0.00 | 0.00 | 94 | 1007.9 |
| 20260505080935 | 71 | 214 | 6.1 | 9.6 | 0.00 | 0.00 | 0.00 | 94 | 1007.8 |
| 20260505080431 | 71 | 208 | 4.3 | 10.4 | 0.00 | 0.00 | 0.00 | 95 | 1007.9 |
| 20260505075926 | 71 | 206 | 3.5 | 7.0 | 0.00 | 0.00 | 0.00 | 95 | 1007.8 |
| 20260505075424 | 71 | 237 | 1.7 | 7.8 | 0.00 | 0.00 | 0.00 | 95 | 1007.8 |
| 20260505074921 | 71 | 169 | 5.2 | 13.0 | 0.00 | 0.00 | 0.00 | 95 | 1007.8 |
| 20260505074419 | 70 | 237 | 1.7 | 5.2 | 0.00 | 0.00 | 0.00 | 95 | 1008.2 |
| 20260505073915 | 70 | 220 | 2.6 | 6.1 | 0.00 | 0.00 | 0.00 | 95 | 1008.1 |
| 20260505073413 | 70 | 206 | 0.0 | 5.2 | 0.00 | 0.00 | 0.00 | 95 | 1007.9 |
| 20260505072910 | 70 | 148 | 4.3 | 4.3 | 0.00 | 0.00 | 0.00 | 95 | 1007.9 |
| 20260505072406 | 70 | 235 | 3.5 | 9.6 | 0.00 | 0.00 | 0.00 | 95 | 1008.1 |
| 20260505071902 | 70 | 242 | 0.0 | 6.1 | 0.00 | 0.00 | 0.00 | 95 | 1008.4 |
| 20260505071359 | 70 | 218 | 6.1 | 7.8 | 0.00 | 0.00 | 0.00 | 94 | 1008.5 |
| 20260505070857 | 70 | 161 | 1.7 | 7.0 | 0.00 | 0.00 | 0.00 | 95 | 1008.4 |
| 20260505070353 | 70 | 144 | 1.7 | 7.0 | 0.00 | 0.00 | 0.00 | 95 | 1008.5 |
| 20260505065848 | 70 | 147 | 4.3 | 7.0 | 0.00 | 0.00 | 0.00 | 94 | 1008.5 |
| 20260505065346 | 70 | 216 | 5.2 | 11.3 | 0.00 | 0.00 | 0.00 | 94 | 1008.7 |
| 20260505064842 | 70 | 169 | 2.6 | 5.2 | 0.00 | 0.00 | 0.00 | 94 | 1008.9 |
| 20260505064339 | 70 | 145 | 2.6 | 5.2 | 0.00 | 0.00 | 0.00 | 94 | 1008.7 |
| 20260505063838 | 70 | 180 | 0.9 | 6.1 | 0.00 | 0.00 | 0.00 | 93 | 1008.7 |
| 20260505063333 | 70 | 186 | 4.3 | 10.4 | 0.00 | 0.00 | 0.00 | 93 | 1008.9 |
| 20260505062830 | 70 | 210 | 2.6 | 11.3 | 0.00 | 0.00 | 0.00 | 93 | 1008.7 |
| 20260505062328 | 70 | 211 | 4.3 | 7.8 | 0.00 | 0.00 | 0.00 | 93 | 1008.6 |
| 20260505061824 | 70 | 150 | 2.6 | 7.8 | 0.00 | 0.00 | 0.00 | 93 | 1008.7 |
| 20260505061323 | 70 | 225 | 4.3 | 6.1 | 0.00 | 0.00 | 0.00 | 93 | 1008.7 |
| 20260505060820 | 70 | 219 | 6.1 | 12.2 | 0.00 | 0.00 | 0.00 | 93 | 1008.5 |
| 20260505060316 | 70 | 180 | 4.3 | 9.6 | 0.00 | 0.00 | 0.00 | 93 | 1008.5 |
| 20260505055812 | 70 | 184 | 6.1 | 8.7 | 0.00 | 0.00 | 0.00 | 93 | 1008.6 |
| 20260505055308 | 70 | 235 | 2.6 | 10.4 | 0.00 | 0.00 | 0.00 | 93 | 1008.3 |
| 20260505054806 | 70 | 225 | 7.8 | 9.6 | 0.00 | 0.00 | 0.00 | 92 | 1008.6 |
| 20260505054303 | 70 | 168 | 3.5 | 12.2 | 0.00 | 0.00 | 0.00 | 92 | 1008.4 |
| 20260505053801 | 70 | 173 | 2.6 | 7.8 | 0.00 | 0.00 | 0.00 | 93 | 1008.4 |
| 20260505053258 | 70 | 168 | 4.3 | 5.2 | 0.00 | 0.00 | 0.00 | 92 | 1008.7 |
| 20260505052755 | 70 | 206 | 2.6 | 8.7 | 0.00 | 0.00 | 0.00 | 92 | 1008.7 |
| 20260505052252 | 70 | 216 | 1.7 | 7.8 | 0.00 | 0.00 | 0.00 | 92 | 1008.9 |
| 20260505051749 | 70 | 185 | 2.6 | 10.4 | 0.00 | 0.00 | 0.00 | 91 | 1008.8 |
| 20260505051247 | 70 | 212 | 4.3 | 8.7 | 0.00 | 0.00 | 0.00 | 91 | 1008.9 |
| 20260505050744 | 70 | 185 | 2.6 | 11.3 | 0.00 | 0.00 | 0.00 | 91 | 1008.5 |
| 20260505050243 | 71 | 153 | 4.3 | 7.8 | 0.00 | 0.00 | 0.00 | 91 | 1008.4 |
| 20260505041712 | 71 | 208 | 5.2 | 15.6 | 0.00 | 0.00 | 0.00 | 90 | 1009.2 |
| 20260505041209 | 71 | 204 | 4.3 | 6.1 | 0.00 | 0.00 | 0.00 | 90 | 1009.0 |
| 20260505040707 | 71 | 153 | 3.5 | 7.0 | 0.00 | 0.00 | 0.00 | 89 | 1009.1 |
| 20260505040204 | 71 | 169 | 2.6 | 13.0 | 0.00 | 0.00 | 0.00 | 89 | 1009.0 |
| 20260505035700 | 71 | 209 | 6.1 | 9.6 | 0.00 | 0.00 | 0.00 | 89 | 1009.0 |
| 20260505035156 | 72 | 197 | 2.6 | 11.3 | 0.00 | 0.00 | 0.00 | 89 | 1009.2 |
| 20260505034653 | 72 | 180 | 3.5 | 7.0 | 0.00 | 0.00 | 0.00 | 88 | 1009.1 |
| 20260505034151 | 72 | 194 | 4.3 | 10.4 | 0.00 | 0.00 | 0.00 | 88 | 1009.0 |
| 20260505033646 | 72 | 183 | 4.3 | 5.2 | 0.00 | 0.00 | 0.00 | 88 | 1008.8 |
| 20260505033145 | 72 | 201 | 2.6 | 8.7 | 0.00 | 0.00 | 0.00 | 88 | 1008.7 |
| 20260505032643 | 72 | 159 | 3.5 | 11.3 | 0.00 | 0.00 | 0.00 | 88 | 1008.9 |
| 20260505032138 | 73 | 157 | 6.1 | 9.6 | 0.00 | 0.00 | 0.00 | 87 | 1009.1 |
| 20260505031636 | 73 | 164 | 5.2 | 11.3 | 0.00 | 0.00 | 0.00 | 87 | 1008.9 |
| 20260505031126 | 73 | 158 | 5.2 | 10.4 | 0.00 | 0.00 | 0.00 | 87 | 1009.1 |
| 20260505030624 | 73 | 137 | 6.1 | 7.8 | 0.00 | 0.00 | 0.00 | 87 | 1008.7 |
| 20260505030120 | 73 | 158 | 2.6 | 8.7 | 0.00 | 0.00 | 0.00 | 87 | 1008.8 |
| 20260505025615 | 73 | 155 | 3.5 | 11.3 | 0.00 | 0.00 | 0.00 | 87 | 1008.9 |
| 20260505025114 | 73 | 140 | 4.3 | 12.2 | 0.00 | 0.00 | 0.00 | 86 | 1008.9 |
| 20260505024611 | 73 | 172 | 2.6 | 7.0 | 0.00 | 0.00 | 0.00 | 86 | 1008.7 |
| 20260505024109 | 73 | 155 | 5.2 | 9.6 | 0.00 | 0.00 | 0.00 | 86 | 1008.7 |
| 20260505023606 | 73 | 147 | 4.3 | 6.1 | 0.00 | 0.00 | 0.00 | 86 | 1008.9 |
| 20260505023103 | 73 | 168 | 1.7 | 9.6 | 0.00 | 0.00 | 0.00 | 86 | 1008.9 |
| 20260505022601 | 73 | 161 | 4.3 | 6.1 | 0.00 | 0.00 | 0.00 | 86 | 1008.7 |
| 20260505022057 | 73 | 165 | 1.7 | 8.7 | 0.00 | 0.00 | 0.00 | 86 | 1008.8 |
| 20260505021554 | 73 | 189 | 3.5 | 5.2 | 0.00 | 0.00 | 0.00 | 86 | 1008.6 |
| 20260505021051 | 73 | 157 | 4.3 | 5.2 | 0.00 | 0.00 | 0.00 | 86 | 1008.7 |
| 20260505020550 | 73 | 203 | 4.3 | 7.8 | 0.00 | 0.00 | 0.00 | 86 | 1008.6 |
| 20260505020048 | 73 | 147 | 1.7 | 7.8 | 0.00 | 0.00 | 0.00 | 86 | 1008.7 |
| 20260505015545 | 73 | 131 | 2.6 | 7.0 | 0.00 | 0.00 | 0.00 | 86 | 1008.7 |
| 20260505015041 | 73 | 151 | 4.3 | 5.2 | 0.00 | 0.00 | 0.00 | 86 | 1008.6 |
| 20260505014538 | 73 | 159 | 2.6 | 4.3 | 0.00 | 0.00 | 0.00 | 86 | 1008.5 |
| 20260505014036 | 74 | 162 | 2.6 | 4.3 | 0.00 | 0.00 | 0.00 | 86 | 1008.6 |
| 20260505013532 | 74 | 180 | 1.7 | 4.3 | 0.00 | 0.00 | 0.00 | 85 | 1008.4 |
| 20260505013030 | 74 | 140 | 2.6 | 3.5 | 0.00 | 0.00 | 0.00 | 86 | 1008.5 |
| 20260505012528 | 74 | 185 | 0.9 | 3.5 | 0.00 | 0.00 | 0.00 | 85 | 1008.2 |
| 20260505012025 | 74 | 187 | 1.7 | 4.3 | 0.00 | 0.00 | 0.00 | 84 | 1008.3 |
| 20260505011520 | 75 | 151 | 4.3 | 5.2 | 0.00 | 0.00 | 0.00 | 83 | 1008.3 |
| 20260505011018 | 75 | 203 | 0.9 | 6.1 | 0.00 | 0.00 | 0.00 | 83 | 1008.2 |
| 20260505010513 | 75 | 245 | 0.0 | 2.6 | 0.00 | 0.00 | 0.00 | 83 | 1008.2 |
| 20260505010010 | 75 | 140 | 3.5 | 6.1 | 0.00 | 0.00 | 0.00 | 82 | 1007.9 |
| 20260505005506 | 76 | 195 | 0.0 | 6.1 | 0.00 | 0.00 | 0.00 | 82 | 1008.2 |
| 20260505005004 | 76 | 166 | 2.6 | 3.5 | 0.00 | 0.00 | 0.00 | 81 | 1008.0 |
| 20260505004501 | 76 | 208 | 9.6 | 9.6 | 0.00 | 0.00 | 0.00 | 80 | 1008.0 |
| 20260505003958 | 77 | 188 | 0.0 | 7.8 | 0.00 | 0.00 | 0.00 | 80 | 1008.1 |
| 20260505003455 | 77 | 240 | 2.6 | 7.0 | 0.00 | 0.00 | 0.00 | 80 | 1008.2 |
| 20260505002950 | 77 | 147 | 10.4 | 11.3 | 0.00 | 0.00 | 0.00 | 79 | 1008.2 |
| 20260505002447 | 77 | 202 | 2.6 | 7.0 | 0.00 | 0.00 | 0.00 | 79 | 1008.1 |
| 20260505001945 | 78 | 139 | 1.7 | 6.1 | 0.00 | 0.00 | 0.00 | 79 | 1008.2 |
| 20260505001443 | 78 | 188 | 0.0 | 9.6 | 0.00 | 0.00 | 0.00 | 79 | 1008.2 |
| 20260505000939 | 78 | 209 | 0.0 | 4.3 | 0.00 | 0.00 | 0.00 | 78 | 1008.2 |
| 20260505000438 | 78 | 212 | 3.5 | 7.8 | 0.00 | 0.00 | 0.00 | 78 | 1008.3 |
| 20260504235934 | 78 | 231 | 5.2 | 6.1 | 0.00 | 0.00 | 0.00 | 78 | 1008.4 |
| 20260504235431 | 78 | 226 | 4.3 | 7.8 | 0.00 | 0.00 | 0.00 | 77 | 1008.3 |
| 20260504234927 | 79 | 163 | 5.2 | 7.8 | 0.00 | 0.00 | 0.00 | 76 | 1008.5 |
| 20260504234425 | 79 | 180 | 4.3 | 10.4 | 0.00 | 0.00 | 0.00 | 76 | 1008.7 |
| 20260504233921 | 79 | 196 | 3.5 | 7.0 | 0.00 | 0.00 | 0.00 | 76 | 1008.6 |
| 20260504233417 | 79 | 228 | 5.2 | 9.6 | 0.00 | 0.00 | 0.00 | 76 | 1008.4 |
| 20260504232914 | 79 | 244 | 7.0 | 8.7 | 0.00 | 0.00 | 0.00 | 75 | 1008.6 |
| 20260504232411 | 79 | 227 | 6.1 | 9.6 | 0.00 | 0.00 | 0.00 | 74 | 1008.6 |
| 20260504231908 | 80 | 156 | 7.8 | 9.6 | 0.00 | 0.00 | 0.00 | 74 | 1008.7 |
| 20260504231404 | 80 | 191 | 1.7 | 7.0 | 0.00 | 0.00 | 0.00 | 73 | 1008.8 |
| 20260504230901 | 80 | 209 | 2.6 | 6.1 | 0.00 | 0.00 | 0.00 | 73 | 1008.9 |
| 20260504230358 | 80 | 148 | 4.3 | 9.6 | 0.00 | 0.00 | 0.00 | 73 | 1008.8 |
| 20260504225857 | 80 | 0 | 0.0 | 6.1 | 0.00 | 0.00 | 0.00 | 73 | 1008.6 |
| 20260504225353 | 81 | 176 | 1.7 | 5.2 | 0.00 | 0.00 | 0.00 | 72 | 1008.7 |